Regional Weather Roundup
Issued by NWS

Home | Current Version | Previous Version | Graphics & Text | Print | Product List | Glossary On
Versions: 1 2 3 4 5 6 7 8 9 10 11 12 13 14 15 16 17 18 19 20 21 22 23 24 25 26 27 28 29 30 31 32 33 34 35 36 37 38 39 40 41 42 43 44 45 46 47 48 49 50
000
ASUS43 KLOT 190803
RWRIL

ILLINOIS REGIONAL WEATHER ROUNDUP
NATIONAL WEATHER SERVICE CHICAGO/ROMEOVILLE IL
200 AM CST THU JAN 19 2017

NOTE: "FAIR" INDICATES FEW OR NO CLOUDS BELOW 12,000 FEET WITH NO
SIGNIFICANT WEATHER AND/OR OBSTRUCTIONS TO VISIBILITY.

* THESE STATIONS ARE NOT UNDER NWS QUALITY CONTROL. THEY ALSO MAY NOT
  REPORT WEATHER SUCH AS PRECIPITATION OR FOG.

ILZ001-002-007-009-015-016-024-190900-
NORTHWEST ILLINOIS

CITY           SKY/WX    TMP DP  RH WIND       PRES   REMARKS
MOLINE         PTCLDY    29  26  89 NE3       30.01R FOG
STERLING*      CLEAR     30  30 100 SE3       30.03R FOG
SAVANNA*       FOG       29  29  99 SW3       30.02R VSB 3/4
$$

ILZ003-004-008-010-011-017-018-190900-
NORTH CENTRAL ILLINOIS

CITY           SKY/WX    TMP DP  RH WIND       PRES   REMARKS
ROCKFORD       CLEAR     30  28  92 S6        30.04S FOG     WCI  24
FREEPORT*      CLEAR     30  29  97 CALM      30.02S FOG
ROCHELLE*      FOG       31  31 100 SE3       30.03F VSB 1/2
DE KALB*       SNOW      32  32 100 S7        30.03F VSB 1/4 WCI  26
$$

ILZ005-006-012>014-019>023-190900-
NORTHEAST ILLINOIS

CITY           SKY/WX    TMP DP  RH WIND       PRES   REMARKS
CHICAGO-OHARE  CLOUDY    34  33  96 SW8       30.04R FOG     WCI  27
CHICAGO-MIDWAY CLOUDY    32  31  96 S6        30.06R FOG     WCI  26
AURORA         FOG       33  32  96 S7        30.04F VSB 1/4 WCI  27
LANSING*       CLOUDY    34  34 100 S8        30.07R WCI  27
JOLIET*        FOG       31  31 100 SE3       30.06F VSB 3/4
WAUKEGAN       CLOUDY    33  32  96 SW10      30.02S FOG     WCI  25
DUPAGE AIRPORT CLOUDY    32  30  92 S5        30.03S FOG     WCI  27
WHEELING       CLOUDY    34  32  92 SW6       30.06R FOG     WCI  29
MORRIS*        CLOUDY    31  30  96 CALM      30.05S FOG
ROMEOVILLE*    CLOUDY    32  32 100 S8        30.05F FOG     WCI  25
NORTHERLY ISL    N/A     35  32  88 S8          N/A  WCI  29
$$

LMZ740>746-190900-
SOUTHERN LAKE MICHIGAN

STATION/POSITION SKY/WX   TEMP    WIND        PRES    VSBY  WAVE
                          AIR SEA DIR/SP/G                  HT/PER
                          (F)     (DEG/KT/KT) (MB)    (MI)  (FT/S)
HARRISON CRIB              36     200/ 13/ 14   N/A
BURNHAM HARBOR             35     200/  5/  9   N/A
CALUMET HARBOR             35     190/  5/  6 1017.3R
BURNS HARBOR               37     190/  9/ 12 1019.0R
$$

ILZ025>027-034>036-040-047-049-050-058-095>099-190900-
WEST-CENTRAL ILLINOIS

CITY           SKY/WX    TMP DP  RH WIND       PRES   REMARKS
QUINCY         CLOUDY    35  34  96 E5        29.98F WCI  31
GALESBURG*     CLOUDY    33  33 100 SE3       30.01S FOG
MACOMB*        CLOUDY    32  32 100 SE6       30.03S FOG     WCI  27
JACKSONVILLE*  LGT RAIN  38  36  93 SE5       30.02S WCI  34
PITTSFIELD*    CLOUDY    38  36  92 SE5       30.02R WCI  35
$$

ILZ028>032-037-038-041>044-048-051>054-059>061-190900-
CENTRAL ILLINOIS

CITY           SKY/WX    TMP DP  RH WIND       PRES   REMARKS
BLOOMINGTON    CLOUDY    33  32  96 S8        30.04S FOG     WCI  26
DECATUR        CLOUDY    32  32 100 SE3       30.05S FOG
PEORIA         CLOUDY    35  34  96 S6        30.04R FOG     WCI  30
LACON*         CLOUDY    31  31 100 SE3       30.03R FOG
LINCOLN*       CLOUDY    35  35 100 SE5       30.04S FOG     WCI  31
SPRINGFIELD    CLOUDY    40  37  89 SE8       30.04R
TAYLORVILLE    CLOUDY    37  36  95 S6        30.06R FOG     WCI  33
$$

ILZ033-039-045-046-055>057-062-063-190900-
EAST-CENTRAL ILLINOIS

CITY           SKY/WX    TMP DP  RH WIND       PRES   REMARKS
CHAMPAIGN      CLOUDY    34  32  92 SE7       30.06F FOG     WCI  28
MATTOON        CLOUDY    36  34  92 SE6       30.06R WCI  31
PARIS*         CLOUDY    35  35 100 SE3       30.09R FOG
$$

ILZ079-100>102-190900-
SOUTHWEST ILLINOIS

CITY           SKY/WX    TMP DP  RH WIND       PRES   REMARKS
ALTON          CLOUDY    40  38  92 SE5       30.04S
BELLEVILLE     CLOUDY    41  41 100 CALM      30.03F
CAHOKIA*       CLOUDY    42  37  82 SE6       30.03F
SPARTA*        CLOUDY    41  38  91 SE5       30.05F
$$

ILZ064>066-069>071-074>076-080>082-084>086-088>090-092>094-190900-
SOUTH-CENTRAL ILLINOIS

CITY           SKY/WX    TMP DP  RH WIND       PRES   REMARKS
CARBONDALE     CLOUDY    43  40  89 NE5       30.05F
CAIRO*         CLOUDY    44  42  95 N5        30.04R
EFFINGHAM*     CLOUDY    37  37 100 E6        30.08S FOG     WCI  33
MARION         CLOUDY    43  43 100 NE5       30.06S
MT. VERNON     CLOUDY    40  38  93 CALM      30.07S
CENTRALIA*     CLOUDY    41  39  93 CALM      30.05S
SALEM*         CLOUDY    41  37  87 E3        30.06F
$$

ILZ067-068-072-073-078-083-087-091-190900-
SOUTHEAST ILLINOIS

CITY           SKY/WX    TMP DP  RH WIND       PRES   REMARKS
LAWRENCEVILLE  CLOUDY    38  36  92 E5        30.08F FOG     WCI  34
FLORA*         MOCLDY    39  38  94 CALM      30.08R FOG
HARRISBURG*    CLOUDY    42  40  91 E5        30.07S
ROBINSON*      MOCLDY    36  35  96 E5        30.09F FOG     WCI  32
CARMI*         CLOUDY    39  38  98 CALM      30.07F FOG
$$

ABBREVIATIONS USED IN REMARKS
   TC - TEMPERATURE IN CELSIUS
  WCI - WIND CHILL INDEX
   HX - HEAT INDEX
  VSB - VISIBILITY
$$




USA.gov is the U.S. government's official web portal to all federal, state and local government web resources and services.